sat.trackr.live / text

‹ back to catalog

CAS500-2 RIDESHARE OBJE*

NORAD 68989 · 2026-100K

PAYLOAD ACTIVE UNKNOWN

§ Identity

Operator
Country
TBD
Launch date
2026-05-03
Launch site
AFWTR
Launch vehicle
Mass (kg)
RCS (m²)

External: N2YO · Heavens-Above · Gunter

§ Orbital elements

Epoch: 2026-05-25T03:31:58.569024Z

Period
96.59 min
Inclination
97.7419°
Eccentricity
0.0005319
Mean motion
14.90765767 rev/d
Perigee alt
591.8 km
Apogee alt
599.3 km
Semi-major
6,973.7 km
B*
1.7528e-4
RAAN
43.0033°
Arg perigee
198.1775°
Mean anomaly
161.9254°
Rev number
326

§ Raw data

CAS500-2 RIDESHARE OBJE*1 68989U 26100K   26145.14720566  .00001668  00000+0  17528-3 0  99942 68989  97.7419  43.0033 0005319 198.1775 161.9254 14.90765767  3269

JSON: /api/v1/satellites/68989 · /tle

For live sub-satellite position, see the globe view (requires WebGL).

§ Visibility from observer

Set your observer location to see the next 7 days of passes ≥ 10°. The values pass through the URL so the page stays shareable.

No JS? Fill the form by hand. The geolocation button needs JavaScript.

§ Radio — SatNOGS DB

ModeDescriptionDownlinkUplink
FM S-band telemetry 2.262 GHz

1 transmitter · refreshed weekly from db.satnogs.org